Regional Weather Roundup
Issued by NWS Sioux Falls, SD

Home | Current Version | Previous Version | Text Only | Print | Product List | Glossary On
Versions: 1 2 3 4 5 6 7 8 9 10 11 12 13 14 15 16 17 18 19 20 21 22 23 24 25 26 27 28 29 30 31 32 33 34 35 36 37 38 39 40 41 42 43 44 45 46 47 48 49 50
000
ASUS43 KFSD 100910
RWRFSD

WEATHER ROUNDUP FOR SE SOUTH DAKOTA/SW MINNESOTA/NW IOWA
NATIONAL WEATHER SERVICE SIOUX FALLS SD
300 AM CST SAT DEC 10 2016

NOTE: "FAIR" INDICATES FEW OR NO CLOUDS BELOW 12,000 FEET WITH NO
SIGNIFICANT WEATHER AND OR OBSTRUCTIONS TO VISIBILITY.


SDZ038>040-050-052>070-101000-
SOUTHEAST SOUTH DAKOTA

CITY           SKY/WX    TMP DP  RH WIND       PRES   REMARKS
BROOKINGS      CLOUDY     3  -2  79 NE3       30.45R
CHAMBERLAIN    FLURRIES   4   0  83 E6        30.42F WCI  -7
HURON          CLOUDY     0  -4  83 N7        30.49F WCI -13
MADISON        CLOUDY     5   1  85 NE3       30.45R
MITCHELL       PTCLDY     7   2  80 N6        30.49F WCI  -3
SIOUX FALLS    CLOUDY    10   6  84 NE5       30.46R WCI   2
WINNER         LGT SNOW   6   1  80 E9        30.37F WCI  -8
YANKTON        CLOUDY    10   5  79 NW8       30.46S WCI  -1
$$

MNZ071-072-080-081-089-090-097-098-101000-
SOUTHWEST MINNESOTA

CITY           SKY/WX    TMP DP  RH WIND       PRES   REMARKS
FAIRMONT       FLURRIES   8   3  80 N9        30.50F WCI  -5
JACKSON        CLOUDY     7   3  85 N7        30.46F WCI  -5
LUVERNE        CLOUDY    10   5  79 E6        30.46S WCI   1
MARSHALL       PTCLDY     2  -2  83 N8        30.51S WCI -12
MONTEVIDEO     CLEAR     -2  -6  84 CALM      30.55R
PIPESTONE      CLOUDY     7   1  78 NE5       30.43S WCI  -2
REDWOOD FALLS  PTCLDY     2  -4  76 N3        30.52F
TRACY          CLOUDY     6   2  84 N7        30.48F WCI  -6
WINDOM         CLOUDY     7   1  78 MISG      30.46F
WORTHINGTON    FLURRIES   6   3  87 NE7       30.46S WCI  -6
$$

IAZ001>003-012>014-020>022-031-032-NEZ013-014-SDZ071-101000-
NORTHWEST IOWA

CITY           SKY/WX    TMP DP  RH WIND       PRES   REMARKS
CHEROKEE       CLOUDY    17  13  84 CALM      30.47S
DENISON        CLOUDY    21  14  73 CALM      30.44F
ESTHERVILLE    CLOUDY     8   5  87 N8        30.47F WCI  -4
LE MARS        CLOUDY    16  14  93 CALM      30.49R
ORANGE CITY    FLURRIES  16  14  93 CALM      30.45S
SHELDON        CLOUDY    10  10 100 E8        30.44S WCI  -1
SIOUX CITY     FLURRIES  20  12  71 CALM      30.49S
SPENCER        CLOUDY    11   8  88 NE8       30.47S WCI  -1
STORM LAKE     CLOUDY    16  12  86 CALM      30.45S
$$

ABBREVIATIONS USED IN REMARKS
   TC - TEMPERATURE IN CELSIUS
  WCI - WIND CHILL INDEX
   HX - HEAT INDEX
  VSB - VISIBILITY





USA.gov is the U.S. government's official web portal to all federal, state and local government web resources and services.